Temperature
-10 -9 -9 -8 -8 -7 -7 -7 -7 -6 -6 -5 -3 -1 2 4 5 7 8 9 9 10 10 11 11 12 12 13 13 14 14 14 14 14 14 14 14 14
-10 -9 -9 -8 -8 -7 -7 -7 -7 -6 -6 -5 -4 -3 0 3 5 6 7 8 9 9 10 10 11 11 12 12 13 13 13 14 14 14 14 14 14 14
-9 -9 -9 -8 -8 -7 -7 -7 -6 -6 -6 -5 -5 -3 -1 1 4 4 6 7 8 9 9 10 10 11 11 12 12 12 13 13 13 13 13 13 13 13
-9 -9 -8 -8 -8 -7 -7 -7 -6 -6 -5 -5 -4 -3 -1 0 2 4 4 5 7 8 8 9 10 11 11 12 12 12 12 12 13 13 13 12 12 12
-9 -9 -9 -9 -8 -8 -8 -7 -6 -5 -5 -4 -4 -3 -1 -0 1 2 3 3 5 7 8 9 10 10 11 11 12 12 12 12 12 13 12 12 11 11
-9 -9 -9 -9 -9 -9 -8 -8 -7 -6 -4 -4 -3 -2 -1 -0 0 1 1 2 4 6 7 8 9 10 11 11 12 12 12 12 12 12 12 12 11 11
-10 -9 -9 -9 -10 -9 -9 -8 -8 -7 -5 -4 -3 -2 -1 -1 0 0 1 2 3 5 7 8 9 10 10 11 11 12 12 12 12 12 12 11 11 11
-10 -10 -10 -10 -10 -10 -9 -9 -8 -8 -7 -5 -4 -3 -2 -1 -1 0 1 1 3 5 6 8 9 9 10 11 11 12 12 12 11 11 11 11 11 10
-11 -10 -10 -10 -10 -10 -10 -9 -9 -8 -8 -8 -6 -5 -4 -3 -2 -0 1 2 3 4 6 7 8 8 9 10 11 11 11 11 11 10 10 10 10 9
-11 -11 -11 -11 -10 -11 -10 -10 -9 -9 -8 -8 -7 -6 -5 -4 -2 -1 1 2 3 4 5 6 7 7 8 8 9 10 10 10 10 10 10 9 9 9
-12 -12 -12 -12 -11 -11 -10 -11 -10 -9 -9 -8 -7 -7 -6 -4 -3 -1 -0 1 3 4 5 6 6 7 7 7 8 8 9 9 9 9 9 9 8 7
-13 -13 -12 -12 -12 -12 -12 -12 -11 -10 -9 -8 -8 -7 -6 -5 -4 -2 -1 1 2 3 4 5 6 6 5 6 7 7 8 8 8 8 8 7 6 5
-14 -14 -13 -13 -13 -13 -13 -13 -12 -11 -10 -9 -9 -8 -7 -5 -4 -3 -2 -0 2 3 4 5 5 6 5 4 4 5 6 6 6 5 5 4 4 4
-14 -14 -14 -14 -14 -13 -13 -13 -12 -11 -10 -10 -9 -9 -8 -7 -5 -3 -3 -1 1 2 3 4 5 6 5 4 3 2 3 3 3 3 2 2 2 3
-14 -14 -14 -14 -13 -13 -13 -12 -11 -11 -11 -11 -10 -10 -10 -9 -6 -4 -3 -2 -0 1 3 4 4 5 5 5 3 2 2 1 1 1 1 1 1 1
-14 -14 -14 -14 -14 -13 -13 -13 -12 -12 -12 -12 -11 -10 -10 -9 -7 -5 -3 -2 -1 0 1 2 3 3 3 4 3 2 1 0 -0 0 0 0 1 1
-14 -14 -14 -14 -14 -14 -14 -14 -13 -13 -12 -12 -11 -11 -10 -10 -9 -7 -5 -3 -1 -1 0 0 1 1 1 1 1 1 1 0 -0 -0 -0 -0 -1 -1
-14 -14 -15 -15 -15 -15 -15 -15 -14 -14 -13 -12 -12 -12 -11 -10 -10 -9 -8 -6 -5 -3 -2 -1 -0 0 -0 -1 -1 -1 -0 -0 -1 -1 -1 -1 -1 -1
-14 -14 -14 -15 -15 -15 -15 -15 -15 -14 -14 -13 -13 -12 -12 -11 -10 -10 -9 -8 -8 -7 -5 -3 -2 -1 -1 -4 -5 -2 -1 -1 -1 -2 -1 -1 -0 -0
-14 -14 -14 -14 -14 -14 -15 -15 -14 -14 -14 -14 -13 -13 -12 -12 -12 -11 -11 -10 -9 -8 -7 -6 -4 -3 -2 -3 -5 -5 -3 -2 -2 -2 -2 -1 -1 -2
-14 -14 -14 -14 -14 -14 -14 -14 -14 -14 -14 -14 -14 -13 -13 -12 -12 -12 -12 -11 -10 -9 -9 -9 -8 -6 -4 -4 -5 -6 -6 -4 -3 -2 -2 -2 -2 -3
-13 -13 -13 -13 -13 -13 -14 -14 -14 -14 -14 -14 -14 -14 -13 -13 -13 -13 -12 -12 -12 -11 -11 -11 -10 -8 -6 -5 -6 -7 -7 -7 -6 -6 -5 -4 -4 -3
-13 -13 -13 -13 -13 -13 -13 -13 -13 -13 -13 -13 -13 -14 -14 -13 -13 -13 -13 -13 -13 -12 -12 -12 -11 -10 -9 -8 -8 -9 -9 -9 -9 -8 -7 -6 -5 -4
Wind_Speed
12 13 11 10 9 9 9 9 11 14 13 8 5 6 9 10 15 15 15 21 19 13 13 14 17 19 22 25 27 30 32 32 31 30 30 30 28 27
11 13 13 9 8 9 9 9 10 12 14 9 9 12 13 14 17 14 15 24 21 12 12 12 13 13 15 19 23 25 27 30 33 34 33 31 30 29
13 13 13 11 9 8 9 9 10 11 15 14 11 12 14 13 11 10 12 13 14 12 11 13 13 12 11 12 16 21 24 26 29 32 35 34 32 31
13 12 11 9 9 8 8 9 10 11 13 16 12 11 13 11 9 9 10 12 11 13 10 13 14 14 13 12 12 15 19 25 29 31 33 34 33 32
10 8 8 10 10 9 9 8 9 10 10 12 11 9 9 8 8 8 10 11 12 11 9 11 13 14 15 14 14 14 17 23 28 31 32 35 36 36
7 8 9 9 12 12 9 10 11 11 9 8 9 8 7 6 5 5 8 8 10 6 4 5 9 13 15 16 17 16 17 20 25 28 32 36 39 39
10 10 11 14 20 16 12 11 12 11 10 7 5 5 4 3 3 3 6 6 8 5 3 3 4 5 8 12 16 18 19 21 24 29 34 37 38 39
11 11 11 11 17 22 22 21 18 14 12 10 8 6 5 4 4 3 2 4 6 4 4 3 4 5 5 5 13 19 21 23 27 32 36 37 37 38
12 11 13 15 13 8 16 20 19 21 19 12 10 9 7 7 7 5 3 2 4 3 2 3 2 3 3 5 16 20 23 26 30 35 37 38 39 39
12 12 11 13 15 14 12 11 11 13 16 11 10 10 10 9 6 6 5 5 5 3 1 3 3 3 3 4 15 21 26 31 36 39 41 42 42 41
13 14 14 11 23 23 16 14 13 12 17 21 19 17 18 18 13 5 4 4 3 1 2 2 3 4 5 4 11 26 33 37 41 43 44 44 43 38
11 13 19 20 24 24 15 14 15 13 14 15 15 16 14 14 16 9 5 3 2 2 0 2 4 4 5 6 9 14 25 36 42 43 43 42 39 29
10 10 12 23 24 24 20 15 18 15 12 12 11 11 10 10 10 10 7 4 3 1 1 2 4 4 6 5 7 10 13 17 24 30 34 35 33 27
10 8 12 22 23 24 19 21 23 18 11 11 11 11 11 11 11 11 10 7 4 2 3 2 4 6 11 10 8 8 12 13 15 15 20 27 27 27
9 17 20 22 20 17 23 25 19 13 12 12 12 11 11 11 11 10 10 8 7 8 7 4 5 8 10 13 11 10 9 10 10 13 13 12 14 16
9 14 19 21 18 18 18 16 13 13 12 11 12 12 12 11 11 11 10 8 6 9 12 14 10 10 11 15 18 18 11 7 8 12 12 11 14 15
8 8 9 10 12 12 12 12 12 12 13 12 12 12 13 13 12 12 11 10 9 7 10 12 16 17 16 12 15 14 15 15 13 12 13 12 9 11
10 7 9 9 10 11 11 11 11 12 12 12 12 12 12 13 13 12 11 12 12 11 9 7 11 15 13 16 16 13 15 14 13 12 12 13 9 6
6 5 6 7 7 8 8 8 9 9 9 10 11 11 11 12 12 12 13 12 12 12 12 10 7 10 15 9 11 15 11 13 13 11 9 8 8 7
3 4 5 5 5 5 6 6 7 7 7 8 9 10 10 11 11 12 12 13 12 12 13 14 13 10 10 10 7 8 15 11 11 11 10 9 7 9
4 4 4 4 4 5 5 5 5 6 6 6 7 8 9 9 10 11 11 17 14 13 13 12 12 14 10 10 12 10 11 15 11 7 7 7 5 4
5 5 5 4 4 4 4 4 5 5 6 6 5 6 7 7 8 10 10 10 11 11 11 10 11 12 12 13 15 13 10 9 14 16 12 8 4 4
6 5 5 5 4 4 3 4 4 4 4 4 5 5 5 5 6 7 8 9 9 10 10 10 11 11 12 12 13 12 12 10 8 9 9 13 12 10
Wind_Direction
295 295 292 284 282 282 281 281 286 294 298 296 295 320 341 325 323 326 327 324 306 249 217 208 206 206 207 207 204 198 192 188 186 185 184 183 182 178
296 297 295 288 286 281 277 275 270 273 279 282 293 305 307 303 305 314 317 321 313 262 202 183 184 190 198 203 202 201 196 191 187 185 184 183 179 174
299 300 299 296 291 285 281 277 273 268 273 280 281 284 284 285 293 301 309 312 306 275 202 177 174 176 180 190 197 197 195 191 189 186 184 182 177 169
300 304 309 319 315 306 297 289 284 273 268 275 278 276 275 276 284 293 303 300 294 281 220 185 181 182 184 187 190 193 192 188 187 188 184 177 172 162
301 319 340 353 348 336 327 328 314 297 270 261 266 267 268 265 269 275 279 282 287 274 229 193 190 189 188 190 190 191 191 190 187 186 180 170 163 158
352 354 353 6 0 348 348 348 338 331 311 273 257 255 259 258 245 241 256 271 279 270 222 189 194 195 193 190 189 189 191 190 187 180 172 163 159 156
11 3 358 12 12 5 7 5 356 355 353 338 303 269 258 263 253 234 235 263 273 255 212 189 183 184 190 196 191 188 187 186 180 170 161 156 153 150
9 1 359 3 15 10 9 13 10 8 9 4 356 347 346 351 341 315 245 235 250 231 190 180 174 182 185 186 188 184 181 177 170 161 154 149 145 142
6 1 6 0 16 6 3 10 8 10 14 12 2 353 344 347 336 315 307 247 253 273 186 163 146 154 154 171 176 175 171 164 156 148 142 137 133 130
4 358 359 353 8 20 3 1 4 3 6 9 5 355 349 351 332 295 293 295 273 279 238 139 117 103 100 138 159 156 149 143 138 134 130 127 124 122
4 1 5 1 9 18 12 3 5 2 2 6 10 7 3 359 3 336 293 247 233 240 3 113 110 80 58 82 132 136 133 131 129 127 125 122 121 118
4 0 3 13 11 17 16 6 9 2 355 356 360 0 357 354 2 359 331 291 252 181 286 110 113 104 70 43 93 117 122 123 123 124 124 122 121 120
7 359 359 12 13 16 18 13 13 10 356 355 356 357 357 356 353 349 338 311 290 274 287 104 110 104 115 103 65 77 106 115 116 117 118 121 123 123
2 356 4 14 14 15 17 16 14 12 3 360 1 1 360 356 350 346 341 339 344 343 351 61 122 146 134 124 105 83 83 94 106 109 112 113 112 115
5 13 14 16 14 11 14 17 14 9 7 4 0 356 352 352 354 355 355 353 18 30 23 30 106 130 131 130 126 121 100 83 91 105 106 107 110 111
9 7 14 14 16 13 13 13 12 11 12 4 357 352 354 1 10 11 11 6 27 33 31 46 66 97 116 121 128 128 118 111 106 101 98 91 89 92
11 6 8 9 11 10 10 11 11 11 11 6 4 1 3 7 14 17 23 33 46 45 45 59 69 72 68 98 117 118 117 116 115 111 105 97 82 92
16 6 9 9 10 8 8 7 10 13 10 9 10 9 7 9 13 19 28 37 43 41 40 49 98 99 82 52 48 107 115 117 115 112 115 114 105 91
11 351 354 356 356 357 357 359 3 3 6 11 15 14 13 14 16 22 26 33 38 40 38 35 44 115 115 98 41 47 102 114 113 108 105 113 122 120
340 334 334 339 344 347 350 353 354 359 6 10 13 16 19 22 23 24 28 33 36 41 45 45 47 65 97 108 103 64 64 90 108 110 109 104 99 105
315 317 317 322 329 335 339 344 348 355 360 4 11 13 17 26 31 30 33 36 41 42 46 43 43 59 79 90 94 83 65 69 85 98 111 111 107 105
286 291 297 303 311 318 324 334 343 349 356 2 4 8 11 22 30 33 36 39 41 44 47 45 43 57 71 88 94 94 87 78 82 84 80 87 117 135
276 272 273 280 284 288 294 308 323 331 340 348 356 4 11 18 20 30 36 42 46 48 51 55 57 64 72 82 91 93 91 90 88 80 67 73 84 92
Height
1426 1423 1421 1419 1417 1415 1413 1412 1410 1402 1395 1393 1394 1395 1396 1400 1403 1404 1407 1411 1416 1421 1427 1432 1437 1444 1450 1457 1464 1470 1476 1483 1489 1497 1504 1510 1516 1521
1422 1419 1417 1414 1412 1410 1408 1406 1404 1401 1395 1389 1391 1390 1391 1393 1396 1398 1401 1405 1410 1415 1421 1426 1431 1437 1443 1450 1457 1464 1471 1477 1484 1491 1497 1504 1510 1516
1418 1416 1413 1411 1408 1405 1403 1401 1398 1396 1391 1387 1388 1387 1387 1388 1391 1393 1396 1400 1405 1411 1416 1420 1425 1431 1437 1443 1450 1457 1464 1471 1478 1485 1492 1498 1504 1510
1415 1413 1410 1407 1404 1401 1398 1395 1392 1390 1387 1384 1384 1384 1383 1383 1384 1388 1391 1395 1400 1406 1410 1415 1420 1425 1431 1437 1444 1451 1457 1465 1472 1479 1486 1490 1497 1505
1414 1412 1409 1405 1402 1398 1394 1391 1387 1383 1381 1380 1379 1380 1380 1381 1382 1384 1388 1393 1395 1400 1405 1410 1414 1419 1425 1431 1438 1445 1452 1459 1466 1472 1480 1485 1490 1498
1414 1411 1409 1405 1401 1396 1392 1387 1383 1378 1375 1374 1375 1376 1377 1378 1380 1381 1385 1388 1391 1395 1400 1405 1410 1415 1420 1426 1432 1439 1446 1454 1461 1467 1474 1481 1487 1493
1415 1412 1409 1406 1402 1396 1391 1385 1380 1376 1372 1370 1371 1372 1374 1375 1377 1378 1380 1383 1386 1391 1396 1401 1405 1409 1413 1420 1426 1433 1440 1448 1455 1462 1469 1476 1483 1490
1416 1413 1409 1406 1401 1395 1389 1384 1379 1375 1371 1368 1368 1369 1370 1372 1373 1374 1376 1381 1385 1388 1392 1395 1400 1404 1409 1415 1421 1428 1435 1442 1450 1457 1465 1472 1479 1486
1418 1415 1411 1407 1402 1395 1389 1383 1378 1374 1372 1369 1367 1367 1368 1369 1369 1370 1372 1377 1380 1384 1388 1391 1395 1399 1404 1410 1416 1423 1429 1437 1444 1452 1460 1468 1475 1481
1421 1417 1413 1408 1404 1396 1390 1384 1378 1374 1371 1368 1366 1365 1366 1366 1367 1367 1369 1373 1377 1380 1383 1386 1391 1396 1401 1407 1412 1418 1425 1433 1440 1448 1456 1463 1470 1476
1422 1418 1415 1409 1405 1398 1391 1385 1380 1375 1371 1368 1366 1365 1364 1364 1364 1365 1366 1371 1374 1376 1379 1383 1388 1394 1400 1405 1411 1417 1423 1430 1438 1445 1452 1459 1466 1473
1424 1420 1416 1412 1406 1400 1393 1387 1382 1377 1372 1368 1366 1364 1362 1361 1361 1361 1363 1366 1370 1373 1376 1381 1385 1391 1398 1404 1409 1415 1422 1429 1436 1443 1450 1456 1463 1471
1426 1422 1417 1413 1407 1402 1396 1391 1386 1381 1375 1371 1367 1363 1361 1359 1358 1359 1360 1363 1367 1371 1374 1378 1382 1387 1393 1402 1408 1413 1419 1426 1433 1441 1449 1457 1465 1473
1430 1425 1420 1414 1408 1403 1398 1393 1388 1383 1378 1373 1368 1364 1360 1357 1356 1357 1358 1361 1365 1368 1372 1376 1379 1383 1388 1397 1407 1415 1419 1425 1431 1440 1450 1460 1469 1478
1433 1429 1423 1416 1410 1404 1400 1395 1390 1385 1381 1376 1371 1366 1362 1359 1357 1357 1358 1361 1364 1367 1370 1375 1378 1382 1386 1390 1402 1414 1421 1429 1437 1443 1451 1460 1468 1476
1435 1430 1424 1419 1413 1408 1403 1398 1393 1389 1386 1381 1376 1372 1367 1362 1358 1357 1358 1360 1363 1366 1370 1374 1378 1381 1385 1391 1399 1413 1423 1430 1440 1446 1453 1461 1470 1477
1438 1432 1426 1421 1415 1410 1406 1402 1398 1394 1390 1386 1382 1377 1372 1367 1363 1360 1359 1360 1362 1365 1369 1374 1378 1382 1388 1394 1401 1411 1421 1431 1440 1448 1455 1461 1469 1477
1440 1435 1430 1426 1421 1416 1412 1407 1403 1399 1396 1392 1388 1384 1379 1375 1371 1368 1365 1364 1364 1366 1370 1375 1380 1384 1390 1397 1405 1413 1421 1430 1439 1448 1456 1463 1470 1477
1442 1438 1434 1430 1426 1422 1418 1414 1410 1406 1403 1399 1395 1391 1387 1383 1380 1377 1375 1372 1371 1371 1373 1377 1382 1387 1390 1399 1411 1418 1423 1431 1440 1449 1457 1465 1471 1477
1443 1440 1437 1434 1430 1427 1423 1419 1416 1412 1409 1405 1402 1399 1395 1392 1388 1385 1383 1382 1380 1379 1379 1381 1385 1389 1393 1399 1409 1420 1428 1434 1441 1448 1456 1463 1469 1475
1444 1441 1438 1436 1433 1431 1428 1424 1421 1418 1415 1412 1409 1406 1403 1400 1397 1395 1393 1392 1390 1388 1388 1389 1391 1395 1397 1403 1410 1420 1429 1437 1443 1448 1455 1461 1467 1472
1443 1441 1439 1437 1435 1433 1430 1428 1425 1422 1420 1417 1414 1412 1410 1407 1405 1403 1401 1399 1398 1397 1398 1399 1401 1403 1406 1408 1413 1422 1430 1437 1443 1449 1455 1461 1464 1469
1441 1439 1438 1436 1435 1433 1432 1430 1428 1426 1423 1421 1419 1417 1415 1413 1412 1410 1409 1408 1407 1406 1406 1407 1408 1410 1413 1417 1421 1427 1433 1439 1445 1450 1456 1460 1464 1468